TimeEDT,TemperatureF,Dew PointF,Humidity,Sea Level PressureIn,VisibilityMPH,Wind Direction,Wind SpeedMPH,Gust SpeedMPH,PrecipitationIn,Events,Conditions,WindDirDegrees,DateUTC
12:15 AM,42.8,37.4,81,29.56,10.0,West,5.8,-,N/A,,Overcast,280,2012-11-03 04:15:00
12:35 AM,42.8,35.6,76,29.57,10.0,WNW,5.8,-,N/A,,Overcast,290,2012-11-03 04:35:00
12:55 AM,42.8,35.6,76,29.57,10.0,WNW,3.5,-,N/A,,Overcast,300,2012-11-03 04:55:00
1:15 AM,42.8,33.8,70,29.57,10.0,Calm,Calm,-,N/A,,Overcast,0,2012-11-03 05:15:00
1:35 AM,41.0,39.2,93,29.58,10.0,Calm,Calm,-,N/A,,Overcast,0,2012-11-03 05:35:00
1:55 AM,41.0,37.4,87,29.58,10.0,Calm,Calm,-,N/A,,Overcast,0,2012-11-03 05:55:00
2:15 AM,42.8,39.2,87,29.58,10.0,Calm,Calm,-,N/A,,Overcast,0,2012-11-03 06:15:00
2:35 AM,41.0,33.8,76,29.59,10.0,Calm,Calm,-,N/A,,Overcast,0,2012-11-03 06:35:00
2:55 AM,41.0,39.2,93,29.58,10.0,West,3.5,-,N/A,,Overcast,280,2012-11-03 06:55:00
3:15 AM,42.8,35.6,76,29.58,10.0,WNW,4.6,-,N/A,,Overcast,300,2012-11-03 07:15:00
3:35 AM,42.8,35.6,76,29.58,10.0,WNW,4.6,-,N/A,,Overcast,300,2012-11-03 07:35:00
3:55 AM,42.8,35.6,76,29.58,10.0,WNW,6.9,-,N/A,,Overcast,300,2012-11-03 07:55:00
4:15 AM,42.8,35.6,76,29.59,10.0,WNW,6.9,-,N/A,,Overcast,300,2012-11-03 08:15:00
4:35 AM,42.8,35.6,76,29.59,10.0,WNW,6.9,-,N/A,,Overcast,300,2012-11-03 08:35:00
4:55 AM,42.8,33.8,70,29.59,10.0,WNW,8.1,-,N/A,,Overcast,300,2012-11-03 08:55:00
5:15 AM,42.8,37.4,81,29.60,10.0,WNW,8.1,-,N/A,,Overcast,300,2012-11-03 09:15:00
5:35 AM,44.6,30.2,57,29.60,10.0,WNW,6.9,-,N/A,,Overcast,300,2012-11-03 09:35:00
5:55 AM,42.8,37.4,81,29.60,10.0,WNW,5.8,-,N/A,,Overcast,300,2012-11-03 09:55:00
6:15 AM,42.8,35.6,76,29.61,10.0,NW,3.5,-,N/A,,Overcast,310,2012-11-03 10:15:00
6:35 AM,42.8,32.0,66,29.61,10.0,WNW,3.5,-,N/A,,Overcast,290,2012-11-03 10:35:00
6:55 AM,42.8,39.2,87,29.62,10.0,WNW,4.6,-,N/A,,Overcast,300,2012-11-03 10:55:00
7:15 AM,42.8,30.2,61,29.62,10.0,WNW,4.6,-,N/A,,Overcast,290,2012-11-03 11:15:00
7:35 AM,42.8,37.4,81,29.63,10.0,West,4.6,-,N/A,,Overcast,270,2012-11-03 11:35:00
8:15 AM,42.8,35.6,76,29.65,10.0,WSW,5.8,-,N/A,,Overcast,250,2012-11-03 12:15:00
8:35 AM,44.6,37.4,76,29.65,10.0,West,4.6,-,N/A,,Overcast,270,2012-11-03 12:35:00
8:55 AM,44.6,33.8,66,29.66,10.0,WSW,4.6,-,N/A,,Overcast,240,2012-11-03 12:55:00
9:15 AM,44.6,37.4,76,29.66,10.0,West,5.8,-,N/A,,Overcast,260,2012-11-03 13:15:00
9:35 AM,44.6,33.8,66,29.66,10.0,West,6.9,-,N/A,,Overcast,270,2012-11-03 13:35:00
9:55 AM,46.4,37.4,71,29.66,10.0,West,6.9,-,N/A,,Overcast,280,2012-11-03 13:55:00
10:15 AM,46.4,33.8,62,29.67,10.0,West,5.8,-,N/A,,Overcast,270,2012-11-03 14:15:00
10:35 AM,46.4,35.6,66,29.67,10.0,West,9.2,-,N/A,,Overcast,270,2012-11-03 14:35:00
10:55 AM,46.4,32.0,57,29.67,10.0,WNW,11.5,-,N/A,,Overcast,290,2012-11-03 14:55:00
11:15 AM,46.4,32.0,57,29.67,10.0,WNW,9.2,-,N/A,,Overcast,290,2012-11-03 15:15:00
11:35 AM,46.4,35.6,66,29.67,10.0,West,9.2,16.1,N/A,,Mostly Cloudy,280,2012-11-03 15:35:00
11:55 AM,48.2,33.8,58,29.67,10.0,WNW,10.4,-,N/A,,Overcast,290,2012-11-03 15:55:00
12:15 PM,48.2,30.2,50,29.67,10.0,WNW,6.9,-,N/A,,Mostly Cloudy,290,2012-11-03 16:15:00
12:35 PM,48.2,32.0,54,29.66,10.0,WNW,10.4,-,N/A,,Partly Cloudy,290,2012-11-03 16:35:00
12:55 PM,48.2,33.8,58,29.66,10.0,West,8.1,-,N/A,,Clear,280,2012-11-03 16:55:00
1:15 PM,48.2,35.6,62,29.66,10.0,WNW,10.4,17.3,N/A,,Clear,290,2012-11-03 17:15:00
1:35 PM,50.0,32.0,50,29.65,10.0,West,9.2,-,N/A,,Clear,280,2012-11-03 17:35:00
1:55 PM,50.0,32.0,50,29.65,10.0,West,13.8,18.4,N/A,,Clear,270,2012-11-03 17:55:00
2:15 PM,48.2,33.8,58,29.65,10.0,West,11.5,16.1,N/A,,Clear,270,2012-11-03 18:15:00
2:35 PM,50.0,30.2,47,29.65,10.0,WNW,10.4,17.3,N/A,,Clear,290,2012-11-03 18:35:00
2:55 PM,51.8,32.0,47,29.66,10.0,NW,13.8,19.6,N/A,,Clear,310,2012-11-03 18:55:00
3:15 PM,51.8,33.8,50,29.66,10.0,WNW,13.8,19.6,N/A,,Clear,290,2012-11-03 19:15:00
3:35 PM,51.8,30.2,44,29.66,10.0,West,11.5,19.6,N/A,,Scattered Clouds,280,2012-11-03 19:35:00
3:55 PM,51.8,32.0,47,29.67,10.0,WNW,13.8,19.6,N/A,,Partly Cloudy,290,2012-11-03 19:55:00
4:15 PM,50.0,32.0,50,29.67,10.0,West,16.1,24.2,N/A,,Clear,280,2012-11-03 20:15:00
4:35 PM,48.2,30.2,50,29.68,10.0,West,13.8,21.9,N/A,,Clear,270,2012-11-03 20:35:00
4:55 PM,48.2,30.2,50,29.68,10.0,West,12.7,16.1,N/A,,Clear,280,2012-11-03 20:55:00
5:15 PM,46.4,32.0,57,29.69,10.0,West,9.2,-,N/A,,Clear,280,2012-11-03 21:15:00
5:35 PM,46.4,28.4,50,29.69,10.0,WNW,13.8,18.4,N/A,,Clear,290,2012-11-03 21:35:00
5:55 PM,44.6,30.2,57,29.70,10.0,WNW,10.4,19.6,N/A,,Clear,290,2012-11-03 21:55:00
6:15 PM,44.6,30.2,57,29.70,10.0,WNW,15.0,21.9,N/A,,Clear,300,2012-11-03 22:15:00
6:35 PM,44.6,30.2,57,29.71,10.0,WNW,15.0,23.0,N/A,,Clear,290,2012-11-03 22:35:00
6:55 PM,44.6,28.4,53,29.72,10.0,WNW,10.4,18.4,N/A,,Partly Cloudy,290,2012-11-03 22:55:00
7:15 PM,44.6,30.2,57,29.72,10.0,WNW,12.7,18.4,N/A,,Clear,300,2012-11-03 23:15:00
7:35 PM,44.6,30.2,57,29.73,10.0,WNW,9.2,17.3,N/A,,Clear,290,2012-11-03 23:35:00
7:55 PM,42.8,32.0,66,29.73,10.0,NW,10.4,-,N/A,,Clear,310,2012-11-03 23:55:00
8:15 PM,42.8,28.4,57,29.73,10.0,WNW,11.5,-,N/A,,Clear,300,2012-11-04 00:15:00
8:35 PM,42.8,32.0,66,29.73,10.0,West,10.4,-,N/A,,Clear,280,2012-11-04 00:35:00
8:55 PM,42.8,32.0,66,29.73,10.0,West,11.5,17.3,N/A,,Clear,280,2012-11-04 00:55:00
9:15 PM,42.8,26.6,53,29.73,10.0,WNW,9.2,16.1,N/A,,Mostly Cloudy,290,2012-11-04 01:15:00
9:35 PM,42.8,35.6,76,29.74,10.0,WNW,10.4,16.1,N/A,,Mostly Cloudy,290,2012-11-04 01:35:00
9:55 PM,42.8,26.6,53,29.74,10.0,West,9.2,-,N/A,,Overcast,280,2012-11-04 01:55:00
10:15 PM,42.8,35.6,76,29.73,10.0,West,9.2,-,N/A,,Overcast,280,2012-11-04 02:15:00
10:35 PM,42.8,26.6,53,29.73,10.0,WNW,9.2,-,N/A,,Overcast,290,2012-11-04 02:35:00
10:55 PM,42.8,35.6,76,29.73,10.0,WNW,6.9,16.1,N/A,,Overcast,300,2012-11-04 02:55:00
11:15 PM,42.8,26.6,53,29.73,10.0,WNW,8.1,17.3,N/A,,Overcast,290,2012-11-04 03:15:00
11:35 PM,42.8,35.6,76,29.73,10.0,West,6.9,-,N/A,,Overcast,280,2012-11-04 03:35:00
11:55 PM,42.8,26.6,53,29.73,10.0,West,8.1,-,N/A,,Overcast,280,2012-11-04 03:55:00